Caddo River (Arkansas), Caddo Gap (07359610)

StateArkansasLatestPoor (64 cfs)
RiverCaddo RiverRatingObservedEstimated
Updated2026-05-05 7:45 (46 minutes ago)Flood - The river is flooding. Obstacles can be treacherous or deadly. The river should be avoided at this stage for casual trips and definitely for the inexperienced. Trips should be attempted only with protective gear and equipment.Flood(none)953
Discharge64 cfs (median: 190 cfs)High - The river is high and potentially dangerous, especially for the young and / or inexperienced. Normal stream obstacles are sometimes difficult to navigate. Extended distances can be attempted, but canoe travel may not be advisable.High(none)350
Height5.17 feetGood - Conditions are ideal for a canoe or kayak. Boats typically will drag on fewer than one-quarter of riffles, if at all, and portages are unnecessary or rare. Normal float lengths can be attempted without a problem.Good(none)174
TrendFalling (falling over 24 hours)Low - River is low but can still be floated. Some riffles are okay but most come with significant dragging and might need a portage. Float lengths should be reduced to accommodate low flow, dragging, and portages.Low(none)109
USGSExternal icon USGS Site (External icon Duck Duck Go Maps)Poor - River is too low to float comfortably. Most or all riffles will drag or must be portaged and some obstacles (such as slick shelf rock) cause undue problems. Avoid the river at this stage for casual paddling trips.Poor(none)50

Trending Data

Plot Image

Trips for Caddo River (Arkansas), Caddo Gap (07359610)

DateStartEndDistanceConditionDischargeHeightFishingDetails
Click for details2017-11-12 Glenwood Caddo River Cabins Total trip distance: 3.3 miles3.3 Good 40 4.84 Fair KSB
LMB
SMB
KSB, LMB, SMB
Fillmore, Brian
Fillmore, Rebecca
Fillmore, Vivien
Javorsek, Rachel
Fillmore, Brian; Fillmore, Rebecca; Fillmore, Vivien; Javorsek, Rachel
Vivien's maiden voyage!Vivien's maiden voyage! USGS Gauge Data:
Caddo Gap (07359610)
Discharge: 40
Height: 4.84
<b>USGS Gauge Data:</b></br />Caddo Gap (07359610)<br />Discharge: 40<br />Height: 4.84
Source: FillmoreSource: Fillmore

A total of 1 rows are displayed.

Trip Summary for Caddo River (Arkansas), Caddo Gap (07359610)

Miles3.3
Trips1
People4
Dates1
Years1
Months1
Rows1
Sources1

Condition Descriptions

Fishing Conditions

Fish Species

Notes

Classic Trip List

The classic River Trips application is still available for use. It is updated with the new system using a data retrofit. It is no longer maintained. The original River Trips application is no longer updated (as of 1 Dec 2016) but can be checked for errors or for the condition of the data before it was converted to the new system.

Gauge Data Table

ObservationHeightDischargeMaximum
Discharge
Minimum
Discharge
Mean
Discharge
P05P10P20P25P50
(Median)
P75P80P90P95
2026-05-05 07:45 5.17 64 1500 (1991) 61 (2014) 318 71 77 96 99 190 441 589 828 1070
2026-05-05 06:45 5.18 65 1500 (1991) 61 (2014) 318 71 77 96 99 190 441 589 828 1070
2026-05-05 05:45 5.17 64 1500 (1991) 61 (2014) 318 71 77 96 99 190 441 589 828 1070
2026-05-05 04:45 5.18 65 1500 (1991) 61 (2014) 318 71 77 96 99 190 441 589 828 1070
2026-05-05 03:45 5.18 65 1500 (1991) 61 (2014) 318 71 77 96 99 190 441 589 828 1070
2026-05-05 02:45 5.19 67 1500 (1991) 61 (2014) 318 71 77 96 99 190 441 589 828 1070
2026-05-05 01:45 5.18 65 1500 (1991) 61 (2014) 318 71 77 96 99 190 441 589 828 1070
2026-05-05 00:45 5.19 67 1500 (1991) 61 (2014) 318 71 77 96 99 190 441 589 828 1070
2026-05-04 23:45 5.18 65 1500 (1991) 61 (2014) 318 71 77 96 99 190 441 589 828 1070
2026-05-04 22:45 5.19 67 2180 (1990) 68 (2014) 390 77 81 99 112 199 446 666 1010 1530
2026-05-04 21:45 5.18 65 2180 (1990) 68 (2014) 390 77 81 99 112 199 446 666 1010 1530
2026-05-04 20:45 5.19 67 2180 (1990) 68 (2014) 390 77 81 99 112 199 446 666 1010 1530
2026-05-04 19:45 5.19 67 2180 (1990) 68 (2014) 390 77 81 99 112 199 446 666 1010 1530
2026-05-04 18:45 5.20 68 2180 (1990) 68 (2014) 390 77 81 99 112 199 446 666 1010 1530
2026-05-04 17:45 5.21 70 2180 (1990) 68 (2014) 390 77 81 99 112 199 446 666 1010 1530
2026-05-04 16:45 5.21 70 2180 (1990) 68 (2014) 390 77 81 99 112 199 446 666 1010 1530
2026-05-04 15:45 5.20 68 2180 (1990) 68 (2014) 390 77 81 99 112 199 446 666 1010 1530
2026-05-04 14:45 5.20 68 2180 (1990) 68 (2014) 390 77 81 99 112 199 446 666 1010 1530
2026-05-04 13:45 5.22 72 2180 (1990) 68 (2014) 390 77 81 99 112 199 446 666 1010 1530
2026-05-04 12:45 5.22 72 2180 (1990) 68 (2014) 390 77 81 99 112 199 446 666 1010 1530
2026-05-04 11:45 5.21 70 2180 (1990) 68 (2014) 390 77 81 99 112 199 446 666 1010 1530
2026-05-04 10:45 5.22 72 2180 (1990) 68 (2014) 390 77 81 99 112 199 446 666 1010 1530
2026-05-04 09:45 5.22 72 2180 (1990) 68 (2014) 390 77 81 99 112 199 446 666 1010 1530
2026-05-04 08:45 5.23 73 2180 (1990) 68 (2014) 390 77 81 99 112 199 446 666 1010 1530
2026-05-04 07:45 5.22 72 2180 (1990) 68 (2014) 390 77 81 99 112 199 446 666 1010 1530
2026-05-04 06:45 5.23 73 2180 (1990) 68 (2014) 390 77 81 99 112 199 446 666 1010 1530
2026-05-04 05:45 5.23 73 2180 (1990) 68 (2014) 390 77 81 99 112 199 446 666 1010 1530
2026-05-04 04:45 5.22 72 2180 (1990) 68 (2014) 390 77 81 99 112 199 446 666 1010 1530
2026-05-04 03:45 5.23 73 2180 (1990) 68 (2014) 390 77 81 99 112 199 446 666 1010 1530
2026-05-04 02:45 5.24 75 2180 (1990) 68 (2014) 390 77 81 99 112 199 446 666 1010 1530
2026-05-04 01:45 5.24 75 2180 (1990) 68 (2014) 390 77 81 99 112 199 446 666 1010 1530
2026-05-04 00:45 5.24 75 2180 (1990) 68 (2014) 390 77 81 99 112 199 446 666 1010 1530
2026-05-03 23:45 5.25 76 2180 (1990) 68 (2014) 390 77 81 99 112 199 446 666 1010 1530
2026-05-03 22:45 5.25 76 3660 (1990) 75 (2014) 634 80 86 98 118 201 653 1100 2620 2970
2026-05-03 21:45 5.24 75 3660 (1990) 75 (2014) 634 80 86 98 118 201 653 1100 2620 2970
2026-05-03 20:45 5.25 76 3660 (1990) 75 (2014) 634 80 86 98 118 201 653 1100 2620 2970
2026-05-03 19:45 5.25 76 3660 (1990) 75 (2014) 634 80 86 98 118 201 653 1100 2620 2970
2026-05-03 18:45 5.24 75 3660 (1990) 75 (2014) 634 80 86 98 118 201 653 1100 2620 2970
2026-05-03 17:45 5.25 76 3660 (1990) 75 (2014) 634 80 86 98 118 201 653 1100 2620 2970
2026-05-03 16:45 5.25 76 3660 (1990) 75 (2014) 634 80 86 98 118 201 653 1100 2620 2970
2026-05-03 15:45 5.25 76 3660 (1990) 75 (2014) 634 80 86 98 118 201 653 1100 2620 2970
2026-05-03 14:45 5.26 78 3660 (1990) 75 (2014) 634 80 86 98 118 201 653 1100 2620 2970
2026-05-03 13:45 5.28 82 3660 (1990) 75 (2014) 634 80 86 98 118 201 653 1100 2620 2970
2026-05-03 12:45 5.28 82 3660 (1990) 75 (2014) 634 80 86 98 118 201 653 1100 2620 2970
2026-05-03 11:45 5.29 83 3660 (1990) 75 (2014) 634 80 86 98 118 201 653 1100 2620 2970
2026-05-03 10:45 5.28 82 3660 (1990) 75 (2014) 634 80 86 98 118 201 653 1100 2620 2970
2026-05-03 09:45 5.29 83 3660 (1990) 75 (2014) 634 80 86 98 118 201 653 1100 2620 2970
2026-05-03 08:45 5.29 83 3660 (1990) 75 (2014) 634 80 86 98 118 201 653 1100 2620 2970
2026-05-03 07:45 5.30 85 3660 (1990) 75 (2014) 634 80 86 98 118 201 653 1100 2620 2970
2026-05-03 06:45 5.30 85 3660 (1990) 75 (2014) 634 80 86 98 118 201 653 1100 2620 2970
2026-05-03 05:45 5.30 85 3660 (1990) 75 (2014) 634 80 86 98 118 201 653 1100 2620 2970
2026-05-03 04:45 5.30 85 3660 (1990) 75 (2014) 634 80 86 98 118 201 653 1100 2620 2970
2026-05-03 03:45 5.31 87 3660 (1990) 75 (2014) 634 80 86 98 118 201 653 1100 2620 2970
2026-05-03 02:45 5.31 87 3660 (1990) 75 (2014) 634 80 86 98 118 201 653 1100 2620 2970
2026-05-03 01:45 5.30 85 3660 (1990) 75 (2014) 634 80 86 98 118 201 653 1100 2620 2970
2026-05-03 00:45 5.30 85 3660 (1990) 75 (2014) 634 80 86 98 118 201 653 1100 2620 2970
2026-05-02 23:45 5.32 89 3660 (1990) 75 (2014) 634 80 86 98 118 201 653 1100 2620 2970
2026-05-02 22:45 5.32 89 8010 (2011) 78 (2000) 696 79 85 101 132 230 444 529 1520 5140
2026-05-02 21:45 5.33 91 8010 (2011) 78 (2000) 696 79 85 101 132 230 444 529 1520 5140
2026-05-02 20:45 5.33 91 8010 (2011) 78 (2000) 696 79 85 101 132 230 444 529 1520 5140
2026-05-02 19:45 5.31 87 8010 (2011) 78 (2000) 696 79 85 101 132 230 444 529 1520 5140
2026-05-02 18:45 5.33 91 8010 (2011) 78 (2000) 696 79 85 101 132 230 444 529 1520 5140
2026-05-02 17:45 5.33 91 8010 (2011) 78 (2000) 696 79 85 101 132 230 444 529 1520 5140
2026-05-02 16:45 5.35 95 8010 (2011) 78 (2000) 696 79 85 101 132 230 444 529 1520 5140
2026-05-02 15:45 5.34 93 8010 (2011) 78 (2000) 696 79 85 101 132 230 444 529 1520 5140
2026-05-02 14:45 5.35 95 8010 (2011) 78 (2000) 696 79 85 101 132 230 444 529 1520 5140
2026-05-02 13:45 5.35 95 8010 (2011) 78 (2000) 696 79 85 101 132 230 444 529 1520 5140
2026-05-02 12:45 5.36 97 8010 (2011) 78 (2000) 696 79 85 101 132 230 444 529 1520 5140
2026-05-02 11:45 5.37 99 8010 (2011) 78 (2000) 696 79 85 101 132 230 444 529 1520 5140
2026-05-02 10:45 5.36 97 8010 (2011) 78 (2000) 696 79 85 101 132 230 444 529 1520 5140
2026-05-02 09:45 5.38 101 8010 (2011) 78 (2000) 696 79 85 101 132 230 444 529 1520 5140
2026-05-02 08:45 5.38 101 8010 (2011) 78 (2000) 696 79 85 101 132 230 444 529 1520 5140
2026-05-02 07:45 5.40 105 8010 (2011) 78 (2000) 696 79 85 101 132 230 444 529 1520 5140
2026-05-02 06:45 5.39 103 8010 (2011) 78 (2000) 696 79 85 101 132 230 444 529 1520 5140
2026-05-02 05:45 5.40 105 8010 (2011) 78 (2000) 696 79 85 101 132 230 444 529 1520 5140
2026-05-02 04:45 5.40 105 8010 (2011) 78 (2000) 696 79 85 101 132 230 444 529 1520 5140
2026-05-02 03:45 5.40 105 8010 (2011) 78 (2000) 696 79 85 101 132 230 444 529 1520 5140
2026-05-02 02:45 5.40 105 8010 (2011) 78 (2000) 696 79 85 101 132 230 444 529 1520 5140
2026-05-02 01:45 5.40 105 8010 (2011) 78 (2000) 696 79 85 101 132 230 444 529 1520 5140
2026-05-02 00:45 5.41 107 8010 (2011) 78 (2000) 696 79 85 101 132 230 444 529 1520 5140
2026-05-01 23:45 5.41 107 8010 (2011) 78 (2000) 696 79 85 101 132 230 444 529 1520 5140
2026-05-01 22:45 5.42 109 4960 (2011) 77 (2000) 536 82 87 100 121 219 487 749 1470 2210
2026-05-01 21:45 5.40 105 4960 (2011) 77 (2000) 536 82 87 100 121 219 487 749 1470 2210
2026-05-01 20:45 5.42 109 4960 (2011) 77 (2000) 536 82 87 100 121 219 487 749 1470 2210
2026-05-01 19:45 5.43 111 4960 (2011) 77 (2000) 536 82 87 100 121 219 487 749 1470 2210
2026-05-01 18:45 5.42 109 4960 (2011) 77 (2000) 536 82 87 100 121 219 487 749 1470 2210
2026-05-01 17:45 5.44 113 4960 (2011) 77 (2000) 536 82 87 100 121 219 487 749 1470 2210
2026-05-01 16:45 5.44 113 4960 (2011) 77 (2000) 536 82 87 100 121 219 487 749 1470 2210
2026-05-01 15:45 5.45 115 4960 (2011) 77 (2000) 536 82 87 100 121 219 487 749 1470 2210
2026-05-01 14:45 5.46 117 4960 (2011) 77 (2000) 536 82 87 100 121 219 487 749 1470 2210
2026-05-01 13:45 5.46 117 4960 (2011) 77 (2000) 536 82 87 100 121 219 487 749 1470 2210
2026-05-01 12:45 5.47 120 4960 (2011) 77 (2000) 536 82 87 100 121 219 487 749 1470 2210
2026-05-01 11:45 5.49 124 4960 (2011) 77 (2000) 536 82 87 100 121 219 487 749 1470 2210
2026-05-01 10:45 5.50 127 4960 (2011) 77 (2000) 536 82 87 100 121 219 487 749 1470 2210
2026-05-01 09:45 5.48 122 4960 (2011) 77 (2000) 536 82 87 100 121 219 487 749 1470 2210
2026-05-01 08:45 5.50 127 4960 (2011) 77 (2000) 536 82 87 100 121 219 487 749 1470 2210
2026-05-01 07:45 5.50 127 4960 (2011) 77 (2000) 536 82 87 100 121 219 487 749 1470 2210
2026-05-01 06:45 5.51 129 4960 (2011) 77 (2000) 536 82 87 100 121 219 487 749 1470 2210
2026-05-01 05:45 5.50 127 4960 (2011) 77 (2000) 536 82 87 100 121 219 487 749 1470 2210
2026-05-01 04:45 5.51 129 4960 (2011) 77 (2000) 536 82 87 100 121 219 487 749 1470 2210
2026-05-01 03:45 5.52 131 4960 (2011) 77 (2000) 536 82 87 100 121 219 487 749 1470 2210
2026-05-01 02:45 5.54 136 4960 (2011) 77 (2000) 536 82 87 100 121 219 487 749 1470 2210
2026-05-01 01:45 5.52 131 4960 (2011) 77 (2000) 536 82 87 100 121 219 487 749 1470 2210
2026-05-01 00:45 5.52 131 4960 (2011) 77 (2000) 536 82 87 100 121 219 487 749 1470 2210
2026-04-30 23:45 5.54 136 4960 (2011) 77 (2000) 536 82 87 100 121 219 487 749 1470 2210
2026-04-30 22:45 5.53 134 10100 (2017) 81 (2000) 801 90 94 99 114 236 386 624 921 9080
2026-04-30 21:45 5.57 144 10100 (2017) 81 (2000) 801 90 94 99 114 236 386 624 921 9080
2026-04-30 20:45 5.56 141 10100 (2017) 81 (2000) 801 90 94 99 114 236 386 624 921 9080
2026-04-30 19:45 5.56 141 10100 (2017) 81 (2000) 801 90 94 99 114 236 386 624 921 9080
2026-04-30 18:45 5.57 144 10100 (2017) 81 (2000) 801 90 94 99 114 236 386 624 921 9080
2026-04-30 17:45 5.57 144 10100 (2017) 81 (2000) 801 90 94 99 114 236 386 624 921 9080
2026-04-30 16:45 5.59 149 10100 (2017) 81 (2000) 801 90 94 99 114 236 386 624 921 9080
2026-04-30 15:45 5.59 149 10100 (2017) 81 (2000) 801 90 94 99 114 236 386 624 921 9080
2026-04-30 14:45 5.61 154 10100 (2017) 81 (2000) 801 90 94 99 114 236 386 624 921 9080
2026-04-30 13:45 5.61 154 10100 (2017) 81 (2000) 801 90 94 99 114 236 386 624 921 9080
2026-04-30 12:45 5.63 159 10100 (2017) 81 (2000) 801 90 94 99 114 236 386 624 921 9080
2026-04-30 11:45 5.63 159 10100 (2017) 81 (2000) 801 90 94 99 114 236 386 624 921 9080
2026-04-30 10:45 5.63 159 10100 (2017) 81 (2000) 801 90 94 99 114 236 386 624 921 9080
2026-04-30 09:45 5.66 167 10100 (2017) 81 (2000) 801 90 94 99 114 236 386 624 921 9080
2026-04-30 08:45 5.66 167 10100 (2017) 81 (2000) 801 90 94 99 114 236 386 624 921 9080
2026-04-30 07:45 5.65 165 10100 (2017) 81 (2000) 801 90 94 99 114 236 386 624 921 9080
2026-04-30 06:45 5.66 167 10100 (2017) 81 (2000) 801 90 94 99 114 236 386 624 921 9080
2026-04-30 05:45 5.68 173 10100 (2017) 81 (2000) 801 90 94 99 114 236 386 624 921 9080
2026-04-30 04:45 5.68 173 10100 (2017) 81 (2000) 801 90 94 99 114 236 386 624 921 9080
2026-04-30 03:45 5.70 179 10100 (2017) 81 (2000) 801 90 94 99 114 236 386 624 921 9080
2026-04-30 02:45 5.68 173 10100 (2017) 81 (2000) 801 90 94 99 114 236 386 624 921 9080
2026-04-30 01:45 5.68 173 10100 (2017) 81 (2000) 801 90 94 99 114 236 386 624 921 9080
2026-04-30 00:45 5.71 182 10100 (2017) 81 (2000) 801 90 94 99 114 236 386 624 921 9080
2026-04-29 23:45 5.71 182 10100 (2017) 81 (2000) 801 90 94 99 114 236 386 624 921 9080
2026-04-29 22:45 5.70 179 7060 (2016) 65 (2012) 708 83 92 105 112 239 430 770 1830 4690
2026-04-29 21:45 5.73 188 7060 (2016) 65 (2012) 708 83 92 105 112 239 430 770 1830 4690
2026-04-29 20:45 5.74 191 7060 (2016) 65 (2012) 708 83 92 105 112 239 430 770 1830 4690
2026-04-29 19:45 5.76 197 7060 (2016) 65 (2012) 708 83 92 105 112 239 430 770 1830 4690
2026-04-29 18:45 5.76 197 7060 (2016) 65 (2012) 708 83 92 105 112 239 430 770 1830 4690
2026-04-29 17:45 5.78 203 7060 (2016) 65 (2012) 708 83 92 105 112 239 430 770 1830 4690
2026-04-29 16:45 5.78 203 7060 (2016) 65 (2012) 708 83 92 105 112 239 430 770 1830 4690
2026-04-29 15:45 5.82 216 7060 (2016) 65 (2012) 708 83 92 105 112 239 430 770 1830 4690
2026-04-29 14:45 5.83 219 7060 (2016) 65 (2012) 708 83 92 105 112 239 430 770 1830 4690
2026-04-29 13:45 5.83 219 7060 (2016) 65 (2012) 708 83 92 105 112 239 430 770 1830 4690
2026-04-29 12:45 5.86 229 7060 (2016) 65 (2012) 708 83 92 105 112 239 430 770 1830 4690
2026-04-29 11:45 5.84 222 7060 (2016) 65 (2012) 708 83 92 105 112 239 430 770 1830 4690
2026-04-29 10:45 5.92 250 7060 (2016) 65 (2012) 708 83 92 105 112 239 430 770 1830 4690
2026-04-29 09:45 5.90 243 7060 (2016) 65 (2012) 708 83 92 105 112 239 430 770 1830 4690
2026-04-29 08:45 5.89 239 7060 (2016) 65 (2012) 708 83 92 105 112 239 430 770 1830 4690
2026-04-29 07:45 5.95 261 7060 (2016) 65 (2012) 708 83 92 105 112 239 430 770 1830 4690
2026-04-29 06:45 5.90 243 7060 (2016) 65 (2012) 708 83 92 105 112 239 430 770 1830 4690
2026-04-29 05:45 5.92 250 7060 (2016) 65 (2012) 708 83 92 105 112 239 430 770 1830 4690
2026-04-29 04:45 5.95 261 7060 (2016) 65 (2012) 708 83 92 105 112 239 430 770 1830 4690
2026-04-29 03:45 5.94 257 7060 (2016) 65 (2012) 708 83 92 105 112 239 430 770 1830 4690
2026-04-29 02:45 5.97 268 7060 (2016) 65 (2012) 708 83 92 105 112 239 430 770 1830 4690
2026-04-29 01:45 5.95 261 7060 (2016) 65 (2012) 708 83 92 105 112 239 430 770 1830 4690
2026-04-29 00:45 5.94 257 7060 (2016) 65 (2012) 708 83 92 105 112 239 430 770 1830 4690
2026-04-28 23:45 5.96 264 7060 (2016) 65 (2012) 708 83 92 105 112 239 430 770 1830 4690
2026-04-28 22:45 5.96 264 1040 (2011) 65 (2006) 285 67 86 107 110 186 424 487 657 739
2026-04-28 21:45 5.99 276 1040 (2011) 65 (2006) 285 67 86 107 110 186 424 487 657 739
2026-04-28 20:45 5.98 272 1040 (2011) 65 (2006) 285 67 86 107 110 186 424 487 657 739
2026-04-28 19:45 6.00 279 1040 (2011) 65 (2006) 285 67 86 107 110 186 424 487 657 739
2026-04-28 18:45 5.99 276 1040 (2011) 65 (2006) 285 67 86 107 110 186 424 487 657 739
2026-04-28 17:45 6.00 279 1040 (2011) 65 (2006) 285 67 86 107 110 186 424 487 657 739
2026-04-28 16:45 6.00 279 1040 (2011) 65 (2006) 285 67 86 107 110 186 424 487 657 739
2026-04-28 15:45 6.01 283 1040 (2011) 65 (2006) 285 67 86 107 110 186 424 487 657 739
2026-04-28 14:45 6.02 287 1040 (2011) 65 (2006) 285 67 86 107 110 186 424 487 657 739
2026-04-28 13:45 6.03 291 1040 (2011) 65 (2006) 285 67 86 107 110 186 424 487 657 739
2026-04-28 12:45 6.03 291 1040 (2011) 65 (2006) 285 67 86 107 110 186 424 487 657 739
2026-04-28 11:45 6.03 291 1040 (2011) 65 (2006) 285 67 86 107 110 186 424 487 657 739
2026-04-28 10:45 6.09 315 1040 (2011) 65 (2006) 285 67 86 107 110 186 424 487 657 739
2026-04-28 09:45 6.08 311 1040 (2011) 65 (2006) 285 67 86 107 110 186 424 487 657 739
2026-04-28 08:45 6.12 328 1040 (2011) 65 (2006) 285 67 86 107 110 186 424 487 657 739
2026-04-28 07:45 6.14 336 1040 (2011) 65 (2006) 285 67 86 107 110 186 424 487 657 739
2026-04-28 06:45 6.15 341 1040 (2011) 65 (2006) 285 67 86 107 110 186 424 487 657 739
2026-04-28 05:45 6.15 341 1040 (2011) 65 (2006) 285 67 86 107 110 186 424 487 657 739
2026-04-28 04:45 6.17 350 1040 (2011) 65 (2006) 285 67 86 107 110 186 424 487 657 739
2026-04-28 03:45 6.18 354 1040 (2011) 65 (2006) 285 67 86 107 110 186 424 487 657 739
2026-04-28 02:45 6.19 358 1040 (2011) 65 (2006) 285 67 86 107 110 186 424 487 657 739
2026-04-28 01:45 6.21 368 1040 (2011) 65 (2006) 285 67 86 107 110 186 424 487 657 739
2026-04-28 00:45 6.23 377 1040 (2011) 65 (2006) 285 67 86 107 110 186 424 487 657 739
2026-04-27 23:45 6.24 381 1040 (2011) 65 (2006) 285 67 86 107 110 186 424 487 657 739

A total of 177 rows are displayed for years 1989 through 2025.